Temp
11 11 11 11 12 12 12 12 12 12 12 12 12 12 12 11 12 12 12 12 12 12 12 12 12 11 10 8 9 8 8 8
11 12 12 12 12 12 12 12 12 12 11 11 12 11 10 10 10 11 11 11 11 11 11 11 11 11 10 9 9 7 7 8
10 12 11 11 12 12 12 12 12 11 11 11 11 10 10 10 10 10 10 10 10 10 10 10 10 9 7 6 5 6 6 6
10 11 11 11 11 11 11 11 11 11 11 10 9 8 7 6 6 7 8 8 9 9 9 8 8 7 6 5 4 5 4 5
11 10 10 11 11 11 10 10 10 10 10 9 9 8 7 6 6 6 6 6 6 8 8 7 7 6 5 5 4 3 4 4
12 11 10 10 10 10 10 10 9 9 8 9 10 8 6 7 7 6 7 7 7 6 6 6 6 6 5 5 5 5 4 3
12 12 10 10 9 9 9 9 8 8 8 8 8 7 6 5 6 6 6 6 6 5 5 5 5 5 5 4 4 5 4 3
13 11 10 10 9 8 9 8 8 8 8 7 6 6 6 5 5 6 6 5 5 4 4 4 3 3 3 4 4 4 4 3
13 12 11 10 9 7 9 8 8 7 6 6 6 6 6 6 5 5 5 5 4 4 3 2 2 2 3 3 3 3 3 4
13 12 11 10 9 8 7 8 6 5 6 5 5 5 6 5 5 5 5 5 5 4 4 3 2 0 0 -0 0 2 1 1
13 12 11 9 9 8 7 7 5 6 5 5 5 5 5 5 5 5 5 5 4 4 3 1 0 0 1 0 0 0 0 -0
12 11 10 9 8 7 6 6 6 6 5 5 5 5 5 5 5 4 4 4 3 1 0 1 0 0 0 0 -0 0 -0 -0
10 9 8 8 7 6 5 7 7 6 5 5 4 4 5 5 4 4 4 3 3 2 1 0 -0 -0 0 0 -0 -0 -0 -1
9 8 7 6 6 5 6 6 6 5 4 5 5 4 5 4 2 2 2 2 2 2 1 0 -0 -0 -0 -1 -1 -1 -1 -1
8 7 5 5 4 4 4 5 4 4 4 3 2 1 1 1 1 0 0 0 0 0 0 1 1 1 -1 -1 -1 -2 -2 -2
6 5 4 4 5 5 5 4 4 3 2 1 1 0 0 0 0 0 0 0 -0 -0 -0 -1 -1 -1 -1 -1 -1 -2 -2 -3
3 2 2 1 1 0 -0 1 1 -0 -1 -1 -1 -2 -2 -2 -1 -1 -1 -1 -1 -0 -0 -0 -0 -1 -1 -1 1 -1 -3 -4
1 1 -0 -1 -0 -1 -1 -0 -0 -1 -2 -3 -3 -3 -3 -3 -3 -3 -3 -3 -3 -3 -2 -2 -1 -1 -1 -2 -1 -1 -4 -4
-0 -1 -1 -2 -2 -2 -2 -3 -3 -3 -4 -4 -4 -5 -5 -5 -5 -5 -4 -4 -4 -4 -4 -4 -3 -2 -2 -2 -3 -2 -4 -4
Height
1532 1534 1536 1536 1537 1538 1538 1540 1541 1541 1542 1542 1542 1543 1543 1540 1540 1539 1537 1536 1535 1533 1530 1528 1526 1525 1523 1522 1520 1520 1519 1519
1531 1533 1535 1537 1537 1537 1536 1537 1539 1540 1541 1542 1542 1541 1543 1539 1538 1536 1535 1533 1531 1529 1527 1524 1522 1520 1517 1516 1514 1514 1515 1515
1530 1531 1533 1535 1537 1537 1536 1536 1536 1536 1537 1538 1539 1539 1541 1540 1537 1535 1533 1530 1527 1526 1522 1519 1517 1516 1514 1512 1511 1510 1511 1511
1528 1528 1530 1532 1534 1536 1536 1536 1535 1534 1533 1534 1536 1538 1539 1539 1538 1534 1531 1528 1525 1523 1519 1517 1514 1512 1510 1507 1506 1505 1506 1507
1525 1525 1526 1528 1530 1532 1533 1534 1534 1533 1531 1531 1532 1535 1536 1535 1534 1532 1528 1523 1520 1516 1515 1515 1510 1509 1507 1506 1504 1502 1503 1504
1523 1524 1526 1527 1528 1529 1529 1529 1531 1530 1529 1528 1528 1531 1532 1530 1529 1527 1528 1524 1519 1517 1514 1512 1510 1506 1507 1505 1503 1500 1501 1500
1521 1522 1523 1524 1525 1526 1527 1528 1529 1529 1528 1527 1526 1527 1528 1528 1528 1527 1523 1520 1517 1513 1511 1509 1508 1506 1505 1503 1502 1499 1499 1496
1518 1518 1518 1521 1522 1521 1524 1527 1528 1527 1526 1525 1525 1524 1524 1525 1524 1522 1519 1517 1513 1509 1506 1505 1505 1504 1501 1500 1499 1497 1495 1493
1515 1516 1516 1518 1520 1520 1521 1524 1525 1525 1525 1525 1524 1522 1522 1521 1521 1519 1516 1513 1509 1505 1502 1500 1500 1499 1496 1496 1494 1492 1489 1488
1514 1514 1513 1514 1516 1517 1519 1521 1523 1523 1524 1523 1521 1520 1520 1518 1517 1514 1511 1508 1504 1501 1498 1495 1493 1493 1492 1489 1486 1484 1482 1481
1512 1511 1510 1509 1512 1514 1516 1518 1519 1520 1521 1519 1519 1517 1516 1514 1512 1510 1507 1503 1499 1497 1493 1490 1488 1487 1486 1484 1481 1479 1476 1474
1511 1509 1507 1507 1509 1513 1514 1514 1516 1517 1516 1516 1516 1514 1511 1509 1507 1504 1500 1497 1494 1492 1490 1487 1485 1483 1480 1478 1475 1473 1470 1468
1510 1507 1506 1506 1508 1511 1512 1512 1514 1514 1513 1513 1511 1508 1506 1504 1501 1498 1494 1492 1489 1487 1484 1481 1479 1476 1474 1471 1468 1466 1463 1460
1511 1509 1508 1507 1509 1511 1511 1512 1513 1513 1511 1506 1504 1501 1500 1498 1495 1492 1489 1486 1483 1480 1478 1475 1472 1470 1467 1464 1461 1458 1455 1452
1512 1513 1510 1510 1510 1511 1511 1510 1509 1505 1502 1500 1498 1496 1495 1494 1490 1486 1483 1480 1477 1473 1470 1467 1463 1460 1457 1455 1452 1449 1446 1442
1515 1514 1512 1511 1509 1510 1508 1507 1504 1501 1498 1496 1495 1493 1490 1487 1483 1480 1477 1473 1469 1465 1461 1458 1454 1451 1448 1445 1442 1439 1436 1433
1517 1515 1513 1511 1509 1508 1506 1503 1500 1497 1495 1493 1490 1486 1483 1480 1475 1471 1468 1464 1460 1457 1453 1449 1445 1441 1438 1434 1432 1429 1427 1424
1516 1514 1512 1510 1508 1506 1504 1501 1498 1494 1491 1489 1485 1482 1477 1473 1469 1464 1460 1455 1450 1446 1440 1437 1433 1430 1428 1424 1421 1419 1417 1415
1516 1514 1513 1511 1508 1505 1503 1500 1496 1493 1489 1485 1481 1476 1472 1467 1462 1458 1453 1448 1443 1437 1431 1427 1423 1417 1416 1414 1410 1409 1407 1405
Wind_Speed
9 9 9 9 9 8 8 7 6 6 5 3 3 3 6 6 10 14 16 18 19 20 22 24 25 24 21 20 22 20 18 17
12 14 13 12 11 10 10 9 8 6 4 2 3 6 8 10 12 14 16 17 19 21 22 24 26 25 26 25 23 19 15 13
12 15 16 14 13 13 13 12 11 9 5 3 3 6 10 14 16 17 18 19 20 21 22 22 23 22 20 17 15 15 13 10
15 18 20 19 17 16 15 15 13 10 7 4 8 9 10 10 15 18 22 20 19 19 20 20 19 19 16 14 13 12 11 10
16 19 21 23 21 21 20 16 12 8 4 7 15 12 11 15 21 25 25 25 24 24 22 19 17 14 14 14 12 9 9 12
14 18 20 21 23 24 22 21 16 10 13 16 23 17 21 21 23 24 26 27 26 22 20 18 15 13 14 14 14 13 12 12
11 15 19 22 22 25 26 22 15 9 6 7 9 10 12 16 18 20 21 22 22 20 19 18 15 12 13 13 14 14 15 14
9 14 20 24 24 26 27 23 15 8 5 4 7 12 15 14 21 22 22 21 20 19 19 17 16 16 16 16 15 15 15 15
10 13 18 22 25 24 26 21 17 12 8 7 16 24 16 16 22 23 23 23 23 22 20 19 19 20 21 22 21 20 19 20
13 14 16 20 25 25 23 20 15 13 8 13 19 19 21 19 24 24 24 24 25 25 24 23 22 21 20 19 20 22 19 19
14 14 15 16 21 23 21 20 15 12 10 19 26 29 23 21 25 24 25 26 26 26 25 23 22 22 20 20 19 19 20 19
14 14 12 12 14 18 17 19 15 17 15 26 33 20 21 22 25 26 27 27 26 24 22 22 23 23 22 22 22 21 22 21
11 12 9 5 7 12 13 16 19 18 23 34 33 28 24 25 26 26 26 27 26 26 24 23 24 25 24 24 24 22 22 23
13 14 13 9 4 3 6 9 15 25 34 37 30 26 25 28 27 26 25 25 27 26 24 24 23 24 25 26 25 25 24 24
13 12 12 10 8 7 11 18 21 19 18 20 23 23 22 24 25 25 25 25 25 26 26 28 30 29 26 25 25 26 26 25
14 13 13 12 8 8 9 11 14 17 17 17 17 19 22 24 26 27 28 28 29 28 28 28 29 28 27 26 25 24 25 25
10 11 11 12 13 13 13 15 18 18 16 16 17 19 20 21 22 23 24 26 28 29 31 33 33 32 32 36 38 32 26 27
10 11 11 12 14 15 16 18 19 20 20 20 21 22 23 24 25 27 28 29 30 34 36 35 36 35 37 39 40 37 28 28
8 9 11 12 13 15 16 17 17 19 20 22 22 23 24 25 26 27 28 29 32 34 35 35 37 40 38 42 43 40 30 28
Wind_Direction
193 187 179 179 183 179 166 157 151 136 114 89 61 0 330 351 331 326 327 324 322 319 316 311 307 301 293 285 283 279 279 278
198 204 205 200 191 184 177 178 169 146 111 49 2 354 345 350 342 336 333 329 327 324 322 317 311 303 296 293 289 288 283 280
209 212 212 205 203 198 194 185 177 162 143 112 36 7 346 343 346 340 336 330 330 329 327 323 315 307 297 288 283 276 280 279
208 216 216 211 207 203 195 189 185 180 167 87 25 7 360 351 344 341 336 333 329 330 334 329 319 309 299 292 285 286 285 279
217 215 213 213 208 204 201 198 194 194 202 306 310 336 345 340 340 339 338 335 334 336 336 336 337 321 305 296 282 272 282 286
224 224 221 215 214 212 207 207 211 245 278 280 279 307 309 318 328 328 317 321 320 318 325 328 327 321 307 297 290 282 269 270
239 232 224 218 213 215 218 218 235 263 282 287 293 305 323 331 316 311 314 314 310 310 315 316 311 303 292 287 281 278 272 269
267 238 228 222 218 216 221 220 241 232 217 251 314 324 318 314 313 315 317 314 307 304 302 301 296 290 288 283 277 273 273 268
319 275 244 232 227 221 222 226 226 233 229 316 329 322 310 300 309 312 314 313 308 305 299 294 291 289 288 280 275 272 268 266
323 296 267 245 231 225 219 224 215 230 237 312 328 324 291 293 304 310 313 314 309 302 295 291 288 283 278 279 277 277 274 272
325 306 282 259 234 226 219 218 215 217 286 317 319 299 280 290 301 307 312 312 306 299 294 288 284 277 272 273 275 275 274 270
337 327 303 273 243 230 218 222 226 240 298 315 309 289 277 287 296 304 309 308 304 293 284 280 277 274 271 270 272 272 272 272
8 9 360 319 248 219 224 238 249 255 297 296 298 290 279 288 295 303 308 307 304 297 290 279 278 275 272 270 270 269 269 271
33 34 35 46 67 189 246 273 285 281 287 291 295 287 279 285 287 288 292 298 301 297 291 285 279 276 274 272 270 270 272 272
42 37 41 42 31 344 305 283 285 291 294 297 294 287 287 288 291 291 288 287 284 284 283 286 289 288 280 274 272 272 271 269
46 41 39 36 25 354 332 317 315 314 318 315 309 300 296 295 294 292 289 285 283 283 281 280 281 281 280 278 278 277 274 271
36 35 31 22 13 4 352 342 336 337 339 334 328 322 317 313 310 307 302 295 289 286 281 278 276 275 274 278 288 283 274 270
33 29 22 11 0 352 347 340 335 334 335 335 332 328 324 321 316 312 309 306 302 298 294 286 278 274 273 273 277 282 271 268
26 17 9 1 353 346 342 338 339 337 334 332 332 330 328 325 321 317 312 308 304 301 296 290 285 283 278 269 268 273 266 263